RH
41 46 50 60 71 82 84 83 99 97 100 100 99 98 98 98 98 100 100 100 98 100 100 99 97 91 80 73 75 75 76 72 69 57 60 55 55 70 62 58 50 64 71 49
16 21 28 34 32 34 37 43 66 91 100 99 95 99 98 100 100 99 99 100 100 100 100 99 92 96 89 81 88 89 90 85 76 66 74 66 61 64 60 68 62 63 60 41
14 15 16 16 15 16 17 24 44 79 91 98 100 100 98 100 97 98 100 100 100 99 100 100 98 93 88 85 85 81 86 92 79 62 57 73 78 75 74 81 73 62 59 52
12 15 15 15 14 13 14 18 28 38 45 61 88 100 92 97 99 100 100 96 88 94 98 98 100 96 100 100 98 91 93 98 93 85 79 74 75 71 79 89 85 84 76 65
14 15 15 15 14 13 15 14 18 20 20 30 52 94 97 100 100 100 95 89 92 99 96 91 98 99 100 100 100 96 95 98 97 95 97 95 96 87 88 87 83 90 82 77
13 14 15 13 12 18 31 20 16 16 16 17 24 24 23 32 84 91 99 99 98 98 81 97 99 92 98 95 95 99 94 96 100 93 84 96 97 86 81 78 86 81 81 77
7 10 13 14 12 14 28 22 21 30 21 20 16 16 19 28 48 72 72 99 100 94 91 96 97 96 91 93 90 98 96 92 100 98 96 89 58 60 62 69 85 83 83 85
6 6 8 10 11 12 18 13 19 37 27 26 18 17 17 37 78 100 98 98 96 98 97 97 96 96 88 77 78 90 98 97 96 91 73 64 64 67 51 52 60 53 55 60
7 7 7 7 9 38 46 19 22 97 100 46 40 34 32 74 99 97 96 93 97 97 96 97 96 85 82 85 90 96 100 97 98 97 89 62 64 60 64 68 71 63 56 59
9 8 8 8 7 22 52 48 40 100 98 39 97 55 84 98 95 97 94 94 97 97 96 97 98 92 90 73 74 80 73 100 96 98 95 78 71 73 65 63 53 48 50 53
11 10 9 8 8 11 40 45 54 86 98 100 89 89 100 92 96 97 92 98 97 97 97 98 96 98 94 85 73 87 83 87 92 94 96 86 88 86 80 68 64 64 62 59
11 10 10 9 14 47 47 46 68 78 88 73 96 99 99 88 74 99 95 96 88 96 96 96 96 95 97 86 81 86 90 88 87 90 95 84 71 70 75 77 78 76 75 71
9 9 12 30 49 65 69 43 27 53 98 100 97 92 88 84 90 96 98 97 97 97 96 96 96 93 94 95 87 80 74 79 92 93 84 72 72 77 80 78 74 74 76 77
9 33 45 67 68 59 34 43 79 99 97 86 66 86 94 94 95 98 98 96 96 96 96 96 96 96 93 94 84 81 79 79 92 86 75 70 63 70 76 79 89 94 94 92
75 79 69 72 72 78 90 91 98 91 87 96 96 96 98 97 96 95 96 96 96 97 96 96 98 95 94 94 95 93 80 80 88 59 53 51 47 40 49 49 49 47 42 36
70 83 55 47 78 98 97 99 98 98 96 97 97 93 94 95 96 97 96 96 97 95 96 95 96 96 98 95 95 81 66 54 42 49 45 48 48 44 36 27 21 20 21 20
84 90 100 99 97 96 97 95 90 95 98 96 96 94 91 90 96 90 92 97 96 97 97 98 97 91 97 96 91 74 50 40 32 24 22 21 23 21 21 24 29 33 30 37
97 96 97 98 97 97 96 95 95 96 96 96 94 94 87 92 96 97 95 95 96 95 96 93 93 91 91 84 57 40 31 26 24 22 26 27 30 47 58 63 62 61 60 60
96 96 97 96 96 95 95 94 90 93 96 94 88 80 67 83 90 97 97 98 96 89 85 82 72 73 54 38 26 22 22 29 33 38 47 62 62 56 66 71 68 67 63 63
67 70 74 85 82 80 75 81 88 91 94 92 63 60 42 70 84 95 85 54 52 42 46 35 40 46 49 30 30 33 39 43 48 55 65 74 74 80 78 75 71 68 62 51
72 77 79 79 82 82 78 72 81 86 80 85 80 68 79 60 65 69 55 33 31 38 62 72 100 80 61 46 44 50 60 67 80 85 86 88 84 75 72 65 64 54 27 23
82 78 67 84 80 61 50 49 47 44 44 34 44 48 39 46 54 50 36 30 32 79 68 81 100 52 44 49 61 75 88 93 96 98 90 88 85 82 71 60 32 20 28 54
66 44 43 44 44 47 39 35 35 30 27 32 36 48 50 40 34 32 31 37 64 53 73 100 86 33 43 59 78 90 94 94 95 93 82 57 43 38 26 20 22 44 62 72
42 38 40 34 35 37 35 28 24 23 25 35 44 40 36 32 34 36 37 48 50 89 100 64 37 39 51 70 81 84 80 74 46 38 33 30 26 22 22 40 67 73 81 87
44 38 36 33 21 22 23 23 22 26 32 42 42 41 38 40 42 40 48 58 59 58 48 31 34 51 62 53 50 55 51 45 42 36 31 30 28 30 51 72 80 95 94 92
32 23 22 23 26 27 28 29 29 32 38 43 44 43 44 51 51 58 56 60 41 31 32 38 52 56 56 63 72 68 51 42 36 31 33 29 41 68 72 85 96 96 96 95
28 26 27 29 32 32 34 34 37 41 46 47 49 46 42 46 52 49 44 34 28 34 42 48 53 64 72 75 68 57 44 34 31 36 35 54 78 79 93 94 97 96 96 96
Wind_Speed
43 43 43 44 44 42 40 38 39 40 36 34 33 37 36 31 32 32 31 29 29 30 23 25 17 18 14 14 13 13 14 12 18 21 19 20 22 19 19 13 10 8 6 9
39 39 36 38 39 35 33 33 37 41 42 35 44 42 37 31 30 31 32 29 31 27 25 17 17 19 23 22 24 10 10 9 10 7 15 23 20 23 24 21 19 20 9 5
35 35 32 32 34 28 26 31 32 37 43 48 45 41 37 37 36 34 31 32 30 27 30 28 17 22 17 18 18 23 23 20 20 19 14 7 7 11 21 23 20 21 27 25
35 33 32 31 32 29 25 30 35 38 31 36 34 35 35 35 29 25 24 26 30 28 29 26 29 27 21 25 23 22 25 28 25 30 28 25 23 22 17 20 24 29 26 27
35 34 33 31 33 31 31 34 33 33 36 36 35 33 40 39 37 40 37 38 34 29 31 30 16 15 17 19 16 20 29 31 19 31 30 27 31 31 30 32 31 32 31 37
37 35 33 32 32 34 37 33 32 31 34 35 35 39 38 38 29 36 34 34 29 34 30 25 24 29 27 24 18 22 26 27 21 36 26 22 26 27 36 39 32 29 32 27
38 37 36 34 34 36 34 34 31 34 38 38 38 38 38 36 32 28 33 32 30 31 27 24 24 26 28 31 32 31 30 27 22 6 4 11 21 20 19 22 25 27 32 36
40 40 38 36 36 36 35 36 36 37 37 36 38 36 35 31 26 31 33 30 28 28 24 19 17 21 24 31 28 27 27 23 11 15 22 24 14 15 12 14 16 18 18 19
41 42 42 39 37 34 36 38 36 35 37 42 37 36 31 27 29 31 33 29 28 26 22 20 16 11 9 6 6 26 34 30 26 16 8 10 7 13 19 20 18 23 25 22
41 42 40 39 39 36 37 40 36 36 47 42 43 34 31 28 28 27 29 29 26 25 27 26 19 17 10 11 10 9 16 23 34 29 19 16 19 13 11 10 11 11 11 12
41 41 40 39 37 37 40 43 39 40 41 42 43 39 39 37 32 28 30 23 27 26 27 26 19 14 17 14 14 10 13 9 12 17 14 14 13 13 15 14 15 14 13 13
38 39 38 37 37 37 39 41 42 36 40 35 35 43 41 38 36 31 29 29 26 19 17 27 17 14 12 13 12 18 14 17 8 10 9 10 11 14 17 22 23 20 20 19
35 35 34 33 34 38 38 39 39 37 36 46 42 38 33 31 28 27 26 29 30 29 27 26 21 15 13 11 15 12 17 20 22 19 20 25 25 20 19 19 19 20 22 22
29 29 32 33 37 33 30 30 33 30 38 27 31 25 28 30 30 29 29 29 29 28 29 29 25 22 17 14 16 17 16 17 21 24 28 28 25 22 22 22 24 24 25 26
28 29 33 37 34 30 24 27 34 33 32 21 30 30 29 27 26 27 28 28 27 27 22 21 22 27 25 28 28 27 27 24 23 19 20 23 25 26 28 28 29 31 34 34
32 32 31 31 25 28 29 27 33 34 33 31 27 24 22 24 25 25 24 24 26 27 25 25 27 27 23 16 13 22 23 21 27 29 32 32 32 32 31 32 30 31 32 32
32 26 33 41 38 32 26 28 26 29 27 24 18 16 22 21 22 21 20 20 22 22 23 25 25 21 19 26 25 21 25 25 23 23 25 27 28 30 28 29 27 27 26 24
34 27 33 35 28 23 23 21 17 16 19 18 9 8 12 17 19 20 19 17 16 17 20 20 21 21 24 22 27 27 27 27 27 25 22 22 20 18 18 22 22 22 24 26
18 21 23 23 21 16 12 9 9 11 13 7 7 9 9 13 15 14 13 13 14 16 20 23 18 22 16 16 21 21 19 16 15 17 17 17 20 22 22 22 22 25 26 27
12 13 14 14 14 13 12 11 12 12 14 12 10 12 11 10 12 13 8 8 13 9 14 17 23 31 29 30 27 24 19 20 20 20 21 23 23 23 24 25 27 29 30 34
11 12 11 13 14 13 11 8 10 10 5 10 16 15 12 12 14 15 10 6 6 5 8 8 6 10 18 16 19 22 22 20 19 18 18 21 24 25 25 26 29 31 35 37
8 8 10 15 14 6 5 7 6 6 9 7 14 17 15 13 14 11 8 8 6 5 7 5 6 17 15 14 14 14 14 14 16 19 23 26 29 31 33 34 36 36 38 39
8 11 11 7 7 6 6 8 6 7 7 9 13 16 15 12 12 8 6 5 6 5 5 5 11 12 10 10 11 12 15 17 20 24 28 32 33 33 35 37 35 38 39 36
9 7 6 5 4 6 7 9 7 7 7 12 15 14 10 9 7 7 5 6 6 5 6 7 9 9 9 10 13 15 17 21 27 30 32 33 33 32 31 34 37 38 37 32
5 5 4 6 5 6 6 7 7 8 12 16 13 10 7 6 6 5 6 5 5 7 6 7 9 10 12 15 21 24 28 31 32 33 34 32 31 31 31 32 34 34 32 27
4 3 4 7 8 10 10 10 10 10 12 11 8 6 5 7 5 6 7 5 6 7 9 11 13 17 22 26 29 33 37 36 35 34 32 30 29 31 32 30 29 27 25 21
4 6 9 12 12 10 9 9 8 7 7 7 5 4 5 4 6 8 9 15 17 16 19 22 26 28 29 33 37 38 36 35 34 33 30 28 30 31 30 27 22 20 17 16
Wind_Direction
259 259 261 261 262 264 264 265 265 269 273 263 258 262 265 276 284 279 284 277 280 272 270 275 269 256 250 261 254 251 247 257 258 263 259 255 233 232 226 224 228 231 264 263
255 257 256 259 260 260 258 254 255 257 262 258 262 269 270 272 273 281 277 276 275 277 272 270 274 265 266 275 263 253 234 237 264 275 262 253 239 240 233 232 247 240 233 248
252 253 254 255 258 256 251 250 246 249 252 253 264 264 265 275 275 275 270 271 270 272 276 274 262 268 278 274 263 249 241 239 236 248 279 267 225 247 243 232 238 250 243 254
249 251 250 252 256 255 246 244 245 248 250 258 264 267 268 268 268 263 263 267 278 276 271 275 265 267 259 272 267 253 238 252 251 256 258 259 253 256 243 243 250 251 261 261
246 247 247 244 249 253 246 243 244 255 260 265 264 261 263 261 267 270 273 279 280 274 268 268 269 272 260 253 260 254 250 260 263 257 251 248 259 254 251 252 251 258 264 266
243 242 241 240 240 243 249 250 253 252 260 259 262 264 268 272 267 266 268 279 275 272 274 267 258 252 253 245 243 253 258 252 260 267 261 262 258 254 252 255 250 251 258 268
242 242 239 239 239 244 248 254 254 253 255 259 262 267 271 272 273 271 268 266 269 265 270 269 260 258 255 255 256 250 252 255 241 275 234 246 260 259 257 246 244 249 254 255
240 239 238 236 238 240 245 250 247 248 256 260 264 266 271 274 267 268 259 262 266 265 262 254 263 263 263 260 252 242 232 232 259 249 250 262 259 281 251 248 260 262 262 261
238 240 238 235 236 237 240 244 247 243 251 260 266 266 263 264 268 269 259 264 263 258 243 245 230 230 233 219 246 228 235 245 237 240 241 252 255 250 251 257 265 265 265 263
236 238 238 236 235 233 236 244 245 244 246 261 261 260 263 260 263 256 265 269 258 246 247 233 228 232 216 231 230 239 222 230 235 241 251 258 256 242 263 227 264 259 266 263
236 236 237 236 235 232 232 241 242 237 248 251 258 254 252 262 258 262 268 260 247 240 227 225 235 230 236 233 236 223 220 223 227 236 247 249 244 229 220 244 249 255 264 267
234 234 236 236 235 232 231 237 239 241 248 243 251 248 250 256 258 260 261 253 249 227 227 232 231 226 225 230 240 229 232 224 229 227 225 246 253 250 249 250 254 259 263 262
234 232 233 235 232 227 229 233 242 241 233 239 247 256 257 257 254 253 248 248 249 246 238 230 229 230 224 222 233 232 233 242 243 254 260 260 265 266 262 260 259 257 257 258
230 230 227 223 230 235 234 234 231 232 230 244 246 247 250 252 250 246 244 242 239 245 248 240 243 248 251 235 236 240 239 245 247 251 257 259 262 264 263 262 262 260 259 260
220 216 217 220 230 231 220 220 228 228 229 232 238 248 247 242 243 244 241 237 239 239 240 240 242 242 250 257 262 255 255 254 253 255 257 260 261 264 265 267 269 270 271 272
205 207 220 219 213 220 214 218 230 231 231 238 243 251 239 240 239 239 239 241 243 246 247 250 250 252 254 259 253 254 263 261 255 256 256 259 264 267 270 271 271 273 274 276
195 195 215 220 205 208 220 223 232 232 231 238 233 237 235 229 226 230 235 237 241 248 254 248 250 255 257 257 255 270 269 268 263 260 263 265 265 268 269 273 273 272 269 266
195 203 209 216 223 220 217 226 233 218 219 217 210 211 208 219 227 232 235 235 239 246 246 254 254 260 257 259 266 265 268 267 267 267 266 264 263 265 267 269 271 267 267 269
189 196 205 213 215 204 187 183 188 190 203 199 206 204 220 218 226 227 227 230 241 248 249 250 253 252 239 243 257 260 260 257 261 265 263 260 265 273 271 268 268 273 276 279
144 153 156 152 160 165 171 173 188 200 216 221 222 215 212 217 218 220 211 226 229 250 250 255 247 250 257 256 255 261 262 264 269 268 265 271 275 277 278 278 279 283 286 288
150 161 170 170 174 174 178 185 187 204 219 227 224 218 226 214 208 205 207 234 235 239 248 224 249 261 259 261 248 254 259 265 270 274 277 283 286 285 281 280 284 289 291 291
155 156 151 154 157 170 180 184 200 204 215 221 210 209 208 203 197 199 219 235 238 237 239 231 247 257 260 254 250 255 261 268 275 283 287 290 292 294 294 294 295 295 293 294
163 156 161 160 189 194 199 196 193 199 212 203 186 182 185 187 198 211 229 229 236 243 226 239 242 271 270 262 263 267 275 281 287 290 293 293 293 292 293 293 294 293 293 293
169 169 181 194 194 204 205 207 210 210 189 171 172 177 178 192 197 222 233 230 237 238 233 247 281 283 280 275 278 281 281 285 291 296 298 298 295 293 292 293 294 294 294 292
176 185 196 199 201 182 176 173 172 167 164 164 172 189 218 217 231 222 227 228 236 232 240 271 285 291 285 288 292 293 295 298 298 301 302 300 297 295 296 297 297 296 293 289
188 198 176 164 156 150 145 140 140 146 161 177 201 229 243 225 226 220 220 227 235 272 289 292 287 291 295 293 291 293 296 296 298 303 303 300 300 301 302 301 298 293 289 282
188 167 158 150 147 148 147 147 148 160 185 210 230 236 236 237 240 237 243 252 273 283 286 288 289 291 290 289 292 295 295 297 300 303 302 302 305 306 307 304 299 292 284 274